Tracking 20376 objects as of 22-Feb-2020
HD Live streaming from Space Station
objects crossing your sky now
Track the group of recently launched Starlink satellites

STARLINK-1190

Track STARLINK-1190 now!
10-day predictions
STARLINK-1190 is classified as:


NORAD ID: 45083
Int'l Code: 2020-006AR
Perigee: 421.3 km
Apogee: 423.3 km
Inclination: 53.0 °
Period: 92.9 minutes
Semi major axis: 6793 km
RCS: Unknown
Launch date: January 29, 2020
Source: United States (US)
Launch site: AIR FORCE EASTERN TEST RANGE (AFETR)
aabbcc
Your satellite tracking list
Your tracking list is empty




NASA's NSSDC Master Catalog

Two Line Element Set (TLE):
1 45083U 20006AR  20052.91667824 +.00977095 +00000-0 +15369-1 0  9992
2 45083 052.9964 120.8601 0001471 056.4421 127.2845 15.50527430004016
Source of the keplerian elements: AFSPC